MUOS-5

Last updated on Mon Oct 14 2024 00:02:40 GMT+0000 (Coordinated Universal Time)

1 41622U 16041A 24287.45676968 -.00000130 00000+0 00000+0 0 9994 2 41622 3.6052 296.7946 0200502 255.6792 249.5224 1.00270329 30950
UTC large
Height (km)
Speed (km/s)
/
Latitude / Longitude
Inclination (degrees)
Orbital Period (minutes)
Azimuth
Elevation
Range (km)
Doppler Factor

Next 0 passes for location: London (51.5072 / 0.1276)

Sorry there are no passes over London.